Valdosta, GA

5:03 PM EDT on June 27, 2017 (GMT -0400)
Moody Air Force Base

Weather History for KVAD - October, 2012

Change the Weather History Date:

Sunday, October 7, 2012

  Actual Average Record
Temperature  
Mean Temperature 78 °F -  
Max Temperature 87 °F 79 °F 89 °F (2002)
Min Temperature 69 °F 61 °F 46 °F (2010)
Cooling Degree Days 12    
Growing Degree Days 28 (Base 50)    
Moisture  
Dew Point 69 °F    
Average Humidity 82    
Maximum Humidity 100    
Minimum Humidity 48    
Precipitation  
Precipitation 0.00 in - - ()
Sea Level Pressure  
Sea Level Pressure 29.97 in    
Wind  
Wind Speed 3 mph (NNW)    
Max Wind Speed 9 mph    
Max Gust Speed -    
Visibility 9 miles    
Events      
Averages and records for this station are not official NWS values.
T = Trace of Precipitation, MM = Missing Value Source: NWS Daily Summary

Daily Weather History Graph

Daily Weather History Graph

Search for Another Location

Airport or City:

Trip Planner

Search our weather history database for the weather conditions in past years. The results will help you decide how hot, cold, wet, or windy it might be!

Date:

Astronomy

Oct. 07, 2012 Rise Set
Actual Time 7:30 AM EDT 7:09 PM EDT
Civil Twilight 7:06 AM EDT 7:34 PM EDT
Nautical Twilight 6:38 AM EDT 8:02 PM EDT
Astronomical Twilight 6:10 AM EDT 8:30 PM EDT
Moon No Moon Rise 1:51 PM EDT (10/7)
Length of Visible Light 12h 27m
Length of Day
11h 39m
Waning Gibbous, 56% of the Moon is Illuminated
Oct 7
Waning Gibbous
Oct 8
Last Quarter
Oct 15
New
Oct 21
First Quarter
Oct 29
Full

Hourly Weather History & Observations

Time (EDT) Temp. Heat Index Dew Point Humidity Pressure Visibility Wind Dir Wind Speed Gust Speed Precip Events Conditions
12:55 AM 72.0 °F - 71.1 °F 97% 29.96 in 10.0 mi Calm Calm - N/A   Clear
1:55 AM 71.8 °F - 71.2 °F 98% 29.96 in 10.0 mi East 6.9 mph - N/A   Clear
2:55 AM 71.8 °F - 71.4 °F 99% 29.96 in 10.0 mi SSE 3.5 mph - N/A   Scattered Clouds
3:55 AM 71.2 °F - 70.9 °F 99% 29.95 in 10.0 mi Calm Calm - N/A   Clear
4:53 AM 69.8 °F - 69.8 °F 100% 29.94 in 3.0 mi Calm Calm - N/A   Clear
4:54 AM 69.8 °F - 69.8 °F 100% 29.94 in 2.5 mi Calm Calm - N/A   Clear
4:55 AM 70.5 °F - 70.5 °F 100% 29.94 in 2.5 mi Calm Calm - N/A   Clear
4:56 AM 69.8 °F - 69.8 °F 100% 29.94 in 3.0 mi Calm Calm - N/A   Clear
4:57 AM 69.8 °F - 69.8 °F 100% 29.94 in 3.0 mi Calm Calm - N/A   Clear
5:55 AM 69.4 °F - 69.4 °F 100% 29.95 in 9.0 mi Calm Calm - N/A   Clear
6:55 AM 69.6 °F - 69.6 °F 100% 29.97 in 10.0 mi NW 3.5 mph - N/A   Mostly Cloudy
7:55 AM 69.3 °F - 69.3 °F 100% 29.98 in 10.0 mi Calm Calm - N/A   Clear
8:55 AM 71.8 °F - 71.8 °F 100% 29.99 in 10.0 mi Calm Calm - N/A   Clear
9:55 AM 76.1 °F - 71.2 °F 85% 30.00 in 10.0 mi NW 4.6 mph - N/A   Clear
10:55 AM 79.3 °F - 70.7 °F 75% 30.01 in 10.0 mi NE 4.6 mph - N/A   Clear
11:55 AM 82.2 °F 85.5 °F 69.1 °F 64% 30.00 in 10.0 mi WNW 4.6 mph - N/A   Clear
12:55 PM 85.5 °F 88.8 °F 68.0 °F 56% 29.99 in 10.0 mi Variable 3.5 mph - N/A   Clear
1:55 PM 85.8 °F 88.2 °F 66.4 °F 52% 29.97 in 10.0 mi WNW 6.9 mph - N/A   Partly Cloudy
2:55 PM 86.9 °F 89.6 °F 66.6 °F 51% 29.95 in 10.0 mi WNW 6.9 mph - N/A   Clear
3:55 PM 86.7 °F 88.7 °F 65.3 °F 49% 29.95 in 10.0 mi WNW 9.2 mph - N/A   Partly Cloudy
4:55 PM 85.8 °F 87.1 °F 64.2 °F 48% 29.94 in 10.0 mi NW 6.9 mph - N/A   Clear
5:55 PM 84.6 °F 86.3 °F 65.3 °F 52% 29.94 in 10.0 mi NW 8.1 mph - N/A   Clear
6:55 PM 79.9 °F - 65.7 °F 62% 29.95 in 10.0 mi NNW 8.1 mph - N/A   Clear
7:55 PM 75.4 °F - 65.8 °F 72% 29.96 in 10.0 mi North 4.6 mph - N/A   Clear
8:55 PM 72.3 °F - 66.4 °F 82% 29.99 in 10.0 mi North 4.6 mph - N/A   Clear
9:55 PM 71.1 °F - 66.9 °F 87% 30.00 in 10.0 mi North 4.6 mph - N/A   Clear
10:55 PM 70.9 °F - 66.2 °F 85% 30.01 in 10.0 mi North 6.9 mph - N/A   Partly Cloudy
11:55 PM 71.4 °F - 66.6 °F 85% 30.01 in 10.0 mi NNE 6.9 mph - N/A   Overcast